TimeAKST,TemperatureF,Dew PointF,Humidity,Sea Level PressureIn,VisibilityMPH,Wind Direction,Wind SpeedMPH,Gust SpeedMPH,PrecipitationIn,Events,Conditions,WindDirDegrees,DateUTC
12:04 AM,-45.4,-9999,N/A,30.64,10.0,Calm,Calm,-,N/A,,Partly Cloudy,0,2013-02-19 09:04:00
12:53 AM,-45.0,-9999,N/A,30.66,10.0,Calm,Calm,-,N/A,,Clear,0,2013-02-19 09:53:00
1:43 AM,-45.4,-9999,N/A,30.64,6.0,Calm,Calm,-,N/A,,Haze,0,2013-02-19 10:43:00
1:49 AM,-43.6,-9999,N/A,30.63,4.0,Calm,Calm,-,N/A,,Haze,0,2013-02-19 10:49:00
1:53 AM,-44.0,-9999,N/A,30.64,2.5,Calm,Calm,-,N/A,,Mostly Cloudy,0,2013-02-19 10:53:00
1:57 AM,-43.6,-9999,N/A,30.63,0.8,Calm,Calm,-,N/A,,Mostly Cloudy,0,2013-02-19 10:57:00
3:20 AM,-45.4,-9999,N/A,30.63,1.0,Calm,Calm,-,N/A,,Clear,0,2013-02-19 12:20:00
3:53 AM,-45.0,-9999,N/A,30.63,4.0,Calm,Calm,-,N/A,,Haze,0,2013-02-19 12:53:00
4:53 AM,-45.9,-9999,N/A,30.62,10.0,Calm,Calm,-,N/A,,Clear,0,2013-02-19 13:53:00
5:53 AM,-45.9,-9999,N/A,30.60,10.0,Calm,Calm,-,N/A,,Clear,0,2013-02-19 14:53:00
6:53 AM,-45.0,-9999,N/A,30.58,10.0,South,3.5,-,N/A,,Clear,190,2013-02-19 15:53:00
7:53 AM,-45.9,-9999,N/A,30.59,10.0,WSW,6.9,-,N/A,,Clear,240,2013-02-19 16:53:00
8:03 AM,-47.2,-9999,N/A,30.58,10.0,West,5.8,-,N/A,,Scattered Clouds,260,2013-02-19 17:03:00
8:24 AM,-45.4,-9999,N/A,30.57,3.0,West,5.8,-,N/A,,Mostly Cloudy,280,2013-02-19 17:24:00
8:28 AM,-45.4,-9999,N/A,30.57,1.2,West,5.8,-,N/A,,Mostly Cloudy,280,2013-02-19 17:28:00
8:53 AM,-45.9,-9999,N/A,30.57,-9999.0,North,-9999.0,-,N/A,,Scattered Clouds,0,2013-02-19 17:53:00
9:01 AM,-45.4,-9999,N/A,30.56,1.0,North,-9999.0,-,N/A,,Mist,0,2013-02-19 18:01:00
9:05 AM,-45.4,-9999,N/A,30.56,0.8,North,-9999.0,-,N/A,,Mist,0,2013-02-19 18:05:00
9:41 AM,-43.6,-9999,N/A,30.54,0.2,North,-9999.0,-,N/A,Fog,Light Freezing Fog,0,2013-02-19 18:41:00
9:53 AM,-44.0,-9999,N/A,30.54,0.2,North,-9999.0,-,N/A,Fog,Light Freezing Fog,0,2013-02-19 18:53:00
10:37 AM,-43.6,-9999,N/A,30.52,0.2,North,-9999.0,-,N/A,Fog,Light Freezing Fog,0,2013-02-19 19:37:00
10:50 AM,-43.6,-9999,N/A,30.52,1.0,North,-9999.0,-,N/A,,Mist,0,2013-02-19 19:50:00
10:51 AM,-44.0,-9999,N/A,30.53,1.0,North,-9999.0,-,N/A,,Mist,0,2013-02-19 19:51:00
11:01 AM,-43.6,-9999,N/A,30.52,1.5,North,-9999.0,-,N/A,,Partly Cloudy,0,2013-02-19 20:01:00
11:10 AM,-43.6,-9999,N/A,30.52,3.0,North,-9999.0,-,N/A,,Partly Cloudy,0,2013-02-19 20:10:00
11:25 AM,-41.8,-9999,N/A,30.50,1.8,North,-9999.0,-,N/A,,Clear,0,2013-02-19 20:25:00
11:43 AM,-43.6,-9999,N/A,30.51,1.5,North,-9999.0,-,N/A,,Partly Cloudy,0,2013-02-19 20:43:00
11:53 AM,-44.0,-9999,N/A,30.51,1.5,North,-9999.0,-,N/A,,Clear,0,2013-02-19 20:53:00
12:20 PM,-41.8,-9999,N/A,30.50,0.8,North,-9999.0,-,N/A,,Clear,0,2013-02-19 21:20:00
12:33 PM,-41.8,-9999,N/A,30.49,1.0,North,-9999.0,-,N/A,,Clear,0,2013-02-19 21:33:00
12:45 PM,-41.8,-9999,N/A,30.49,1.0,North,-9999.0,-,N/A,,Mist,0,2013-02-19 21:45:00
12:53 PM,-42.0,-9999,N/A,30.51,1.0,North,-9999.0,-,N/A,,Mist,0,2013-02-19 21:53:00
1:02 PM,-41.8,-9999,N/A,30.49,1.5,North,-9999.0,-,N/A,,Partly Cloudy,0,2013-02-19 22:02:00
1:16 PM,-41.8,-9999,N/A,30.50,2.5,North,-9999.0,-,N/A,,Clear,0,2013-02-19 22:16:00
1:23 PM,-43.6,-9999,N/A,30.50,4.0,North,-9999.0,-,N/A,,Haze,0,2013-02-19 22:23:00
1:28 PM,-41.8,-9999,N/A,30.49,1.8,North,-9999.0,-,N/A,,Scattered Clouds,0,2013-02-19 22:28:00
1:32 PM,-43.6,-9999,N/A,30.49,0.8,North,-9999.0,-,N/A,,Mist,0,2013-02-19 22:32:00
1:53 PM,-44.0,-9999,N/A,30.50,0.5,Calm,Calm,-,N/A,Fog,Light Freezing Fog,0,2013-02-19 22:53:00
3:22 PM,-34.6,-9999,N/A,30.47,1.2,North,5.8,-,N/A,,Clear,10,2013-02-20 00:22:00
3:32 PM,-34.6,-9999,N/A,30.47,2.0,North,5.8,-,N/A,,Partly Cloudy,360,2013-02-20 00:32:00
3:45 PM,-34.6,-9999,N/A,30.46,4.0,North,6.9,-,N/A,,Haze,10,2013-02-20 00:45:00
3:53 PM,-34.1,-9999,N/A,30.46,4.0,North,8.1,-,N/A,,Haze,10,2013-02-20 00:53:00
4:53 PM,-34.1,-9999,N/A,30.45,6.0,NE,6.9,-,N/A,,Haze,40,2013-02-20 01:53:00
5:53 PM,-33.0,-9999,N/A,30.44,10.0,NE,5.8,-,N/A,,Clear,40,2013-02-20 02:53:00
6:53 PM,-34.1,-9999,N/A,30.43,4.0,North,5.8,-,N/A,,Haze,10,2013-02-20 03:53:00
7:13 PM,-36.4,-9999,N/A,30.41,1.5,NNE,6.9,-,N/A,,Clear,20,2013-02-20 04:13:00
7:27 PM,-34.6,-9999,N/A,30.41,3.0,NNE,8.1,-,N/A,,Clear,20,2013-02-20 04:27:00
7:53 PM,-35.0,-9999,N/A,30.41,3.0,NNE,8.1,-,N/A,,Clear,30,2013-02-20 04:53:00
8:01 PM,-36.4,-9999,N/A,30.40,2.0,NNE,9.2,-,N/A,,Clear,30,2013-02-20 05:01:00
8:16 PM,-36.4,-9999,N/A,30.39,6.0,NNE,11.5,-,N/A,,Haze,30,2013-02-20 05:16:00
8:53 PM,-34.1,-9999,N/A,30.39,7.0,NE,10.4,-,N/A,,Clear,40,2013-02-20 05:53:00
9:53 PM,-35.0,-9999,N/A,30.39,7.0,NE,11.5,-,N/A,,Clear,50,2013-02-20 06:53:00
10:53 PM,-36.0,-9999,N/A,30.36,4.0,North,-9999.0,-,N/A,,Haze,0,2013-02-20 07:53:00
11:53 PM,-36.0,-9999,N/A,30.35,4.0,North,-9999.0,-,N/A,,Haze,0,2013-02-20 08:53:00